Location: Newark
(0.5300°S, 127.4800°E)
Time: 20:27:09
(UTC+00:00)

A-11 Canister half - Pass Details

Date: 21 September 2019
Orbit: 1514 x 1686 km, 47.2° (Epoch: 16 October)

Event Time Altitude Azimuth Distance (km) Brightness Sun altitude
Rises 22:07:10 0° 222° (SW) 4,871 11.2 11.0°
Reaches altitude 10° 22:10:20 10° 222° (SW) 3,862 10.7 11.8°
Maximum altitude 22:20:11 82° 309° (NW) 1,600 9.3 14.3°
Drops below altitude 10° 22:29:38 10° 36° (NE) 3,716 11.6 16.6°
Sets 22:32:38 0° 37° (NE) 4,680 12.1 17.4°
